Location: Dackenheim
(49.5215°N, 8.1854°E)
Time: 23:20:04
(UTC+00:00)

Cosmos 2298 Rocket - Pass Details

Date: 19 May 2025
Orbit: 773 x 781 km, 74.0° (Epoch: 22 June)

Event Time Altitude Azimuth Distance (km) Brightness Sun altitude
Rises 21:17:04 0° 335° (NNW) 3,281 9.1 -15.0°
Reaches altitude 10° 21:19:28 10° 334° (NNW) 2,348 7.9 -15.2°
Maximum altitude 21:24:48 80° 249° (WSW) 800 4.1 -15.7°
Enters shadow 21:27:59 25° 165° (SSE) 1,537 5.0 -15.9°
